Location: Borea
(45.6167°N, 23.0167°E)
Time: 05:36:54
(UTC+00:00)

Gblst 52 Del rocket - Pass Details

Date: 03 February 2023
Orbit: 805 x 1364 km, 51.5° (Epoch: 29 March)

Event Time Altitude Azimuth Distance (km) Brightness Sun altitude
Rises 16:47:54 0° 249° (WSW) 3,450 9.2 -12.7°
Reaches altitude 10° 16:50:30 10° 251° (WSW) 2,463 8.1 -13.2°
Maximum altitude 16:56:09 72° 336° (NNW) 852 4.2 -14.2°
Enters shadow 17:00:02 20° 59° (ENE) 1,799 5.4 -14.8°
